This is the latest recevied weather packets stored in our database for station/object KC7RJK-2. If no packets are shown the sender has not sent any weather packets the latest 10 day(s).
| Time | Temp. | Humidity | Pressure | Rain* | Wind** | Luminosity | Snow |
|---|---|---|---|---|---|---|---|
| 1777422011 | 17.22° C | 55% | 1022 hPa | 0 mm | - | - | - |
| 1777421410 | 17.78° C | 55% | 1022 hPa | 0 mm | - | - | - |
| 1777420809 | 17.78° C | 53% | 1022 hPa | 0 mm | - | - | - |
| 1777420209 | 18.33° C | 52% | 1022.1 hPa | 0 mm | - | - | - |
| 1777419610 | 17.78° C | 55% | 1022.4 hPa | 0 mm | - | - | - |
| 1777419009 | 17.78° C | 55% | 1022.2 hPa | 0 mm | - | - | - |
| 1777418411 | 18.33° C | 52% | 1022.1 hPa | 0 mm | - | - | - |
| 1777417810 | 17.78° C | 56% | 1022.2 hPa | 0 mm | - | - | - |
| 1777417211 | 17.22° C | 60% | 1022.5 hPa | 0 mm | - | - | - |
| 1777416609 | 17.22° C | 60% | 1022.6 hPa | 0 mm | - | - | - |
| 1777416010 | 16.67° C | 54% | 1022.7 hPa | 0 mm | - | - | - |
| 1777415411 | 17.22° C | 60% | 1022.8 hPa | 0 mm | - | - | - |
| 1777414809 | 17.78° C | 55% | 1022.9 hPa | 0 mm | - | - | - |
| 1777414209 | 17.78° C | 56% | 1023.1 hPa | 0 mm | - | - | - |
| 1777413609 | 17.78° C | 56% | 1023.1 hPa | 0 mm | - | - | - |
| 1777413008 | 17.22° C | 54% | 1023.1 hPa | 0 mm | - | - | - |
| 1777412411 | 17.22° C | 55% | 1023.1 hPa | 0 mm | - | - | - |
| 1777411810 | 16.67° C | 54% | 1023.2 hPa | 0 mm | - | - | - |
| 1777411210 | 17.22° C | 56% | 1023.3 hPa | 0 mm | - | - | - |
| 1777410608 | 16.67° C | 55% | 1023.5 hPa | 0 mm | - | - | - |
| 1777410009 | 17.22° C | 55% | 1023.6 hPa | 0 mm | - | - | - |
| 1777409410 | 16.67° C | 57% | 1023.5 hPa | 0 mm | - | - | - |
| 1777408810 | 16.11° C | 56% | 1023.5 hPa | 0 mm | - | - | - |
| 1777408210 | 15.56° C | 60% | 1023.6 hPa | 0 mm | - | - | - |
| 1777407609 | 15.56° C | 61% | 1023.6 hPa | 0 mm | - | - | - |
* Rain latest hour (hover to see other rain measurements)
** Current wind speed in m/s (hover to see current wind gust speed)